EJU93RY EGKK-EDDB

Flight info

Callsign EJU93RY
Flight time 1h 17m
Altitude 37000
Route FRANE M604 GASBA M197 REDFA DCT TACHA DCT BATEL T207 OGBER
Aircraft A319/M-SDE2E3FGIJ1RWXYZ/LB1

Departure

Time 2026-04-18 08:15
Airport London Gatwick Airport (EGKK)

Arrival

Time 2026-04-18 09:32
Airport Berlin Brandenburg Airport (EDDB)
Time Latitude Longitude Altitude Speed Heading
2026-04-18 07:43 51.15808 -0.17748 215 ft 0 kts 347°
2026-04-18 08:04 51.15799 -0.17745 210 ft 4 kts 347°
2026-04-18 08:04 51.15772 -0.17736 207 ft 4 kts 347°
2026-04-18 08:05 51.15748 -0.17731 212 ft 4 kts 17°
2026-04-18 08:05 51.15728 -0.17752 212 ft 4 kts 68°
2026-04-18 08:05 51.15723 -0.17785 208 ft 4 kts 77°
2026-04-18 08:05 51.15720 -0.17807 213 ft 0 kts 77°
2026-04-18 08:08 51.15721 -0.17795 210 ft 2 kts 77°
2026-04-18 08:08 51.15727 -0.17758 211 ft 5 kts 77°
2026-04-18 08:08 51.15735 -0.17696 204 ft 7 kts 77°
2026-04-18 08:09 51.15747 -0.17611 204 ft 9 kts 80°
2026-04-18 08:09 51.15741 -0.17516 214 ft 8 kts 131°
2026-04-18 08:09 51.15697 -0.17490 209 ft 6 kts 167°
2026-04-18 08:09 51.15667 -0.17480 204 ft 4 kts 169°
2026-04-18 08:10 51.15632 -0.17469 213 ft 7 kts 166°
2026-04-18 08:10 51.15576 -0.17448 213 ft 10 kts 167°
2026-04-18 08:10 51.15502 -0.17422 212 ft 11 kts 168°
2026-04-18 08:10 51.15435 -0.17399 208 ft 9 kts 168°
2026-04-18 08:11 51.15382 -0.17381 213 ft 7 kts 167°
2026-04-18 08:11 51.15316 -0.17358 213 ft 12 kts 168°
2026-04-18 08:11 51.15237 -0.17305 207 ft 11 kts 144°
2026-04-18 08:11 51.15180 -0.17222 204 ft 11 kts 110°
2026-04-18 08:12 51.15194 -0.17101 208 ft 11 kts 75°
2026-04-18 08:12 51.15206 -0.17003 208 ft 8 kts 78°
2026-04-18 08:12 51.15220 -0.16910 210 ft 9 kts 78°
2026-04-18 08:12 51.15223 -0.16879 206 ft 0 kts 83°
2026-04-18 08:14 51.15223 -0.16868 204 ft 3 kts 93°
2026-04-18 08:14 51.15208 -0.16818 207 ft 7 kts 130°
2026-04-18 08:14 51.15142 -0.16798 206 ft 13 kts 200°
2026-04-18 08:14 51.15105 -0.16913 202 ft 10 kts 258°
2026-04-18 08:15 51.15075 -0.17140 208 ft 50 kts 258°
2026-04-18 08:15 51.14946 -0.18073 205 ft 120 kts 257°
2026-04-18 08:15 51.14744 -0.19603 511 ft 145 kts 259°
2026-04-18 08:15 51.14532 -0.21183 1218 ft 147 kts 259°
2026-04-18 08:16 51.14308 -0.22817 1811 ft 162 kts 260°
2026-04-18 08:16 51.14058 -0.24669 2246 ft 181 kts 261°
2026-04-18 08:16 51.13774 -0.26824 2660 ft 209 kts 260°
2026-04-18 08:16 51.13647 -0.29133 3292 ft 218 kts 283°
2026-04-18 08:17 51.14430 -0.31179 4193 ft 223 kts 320°
2026-04-18 08:17 51.15865 -0.32171 5167 ft 232 kts 346°
2026-04-18 08:17 51.17498 -0.32042 6062 ft 243 kts 13°
2026-04-18 08:17 51.19043 -0.30726 6677 ft 268 kts 39°
2026-04-18 08:18 51.20397 -0.28496 7179 ft 289 kts 45°
2026-04-18 08:18 51.21783 -0.26102 7957 ft 298 kts 45°
2026-04-18 08:18 51.23176 -0.23675 8833 ft 303 kts 45°
2026-04-18 08:18 51.24610 -0.21179 9731 ft 308 kts 45°
2026-04-18 08:19 51.26098 -0.18601 10461 ft 320 kts 45°
2026-04-18 08:19 51.27665 -0.15905 10786 ft 342 kts 45°
2026-04-18 08:19 51.29315 -0.13078 11410 ft 353 kts 45°
2026-04-18 08:19 51.31009 -0.10175 12153 ft 359 kts 45°
2026-04-18 08:20 51.32701 -0.07271 12894 ft 365 kts 45°
2026-04-18 08:20 51.34445 -0.04268 13636 ft 372 kts 45°
2026-04-18 08:20 51.36247 -0.01160 14313 ft 379 kts 45°
2026-04-18 08:20 51.38045 0.01955 15001 ft 383 kts 45°
2026-04-18 08:21 51.39860 0.05104 15680 ft 387 kts 45°
2026-04-18 08:21 51.41666 0.08237 16349 ft 391 kts 45°
2026-04-18 08:21 51.43524 0.11458 17018 ft 395 kts 45°
2026-04-18 08:21 51.45398 0.14706 17687 ft 399 kts 45°
2026-04-18 08:22 51.47291 0.17990 18359 ft 403 kts 45°
2026-04-18 08:22 51.49203 0.21311 18956 ft 407 kts 45°
2026-04-18 08:22 51.51160 0.24716 19543 ft 411 kts 45°
2026-04-18 08:22 51.53081 0.28063 20111 ft 415 kts 45°
2026-04-18 08:23 51.55046 0.31494 20690 ft 419 kts 45°
2026-04-18 08:23 51.57028 0.34960 21268 ft 423 kts 45°
2026-04-18 08:23 51.59026 0.38467 21818 ft 428 kts 45°
2026-04-18 08:23 51.61042 0.42015 22376 ft 432 kts 45°
2026-04-18 08:24 51.63078 0.45603 22934 ft 436 kts 45°
2026-04-18 08:24 51.65131 0.49222 23479 ft 440 kts 45°
2026-04-18 08:24 51.67203 0.52875 24020 ft 443 kts 45°
2026-04-18 08:24 51.69287 0.56544 24490 ft 446 kts 45°
2026-04-18 08:25 51.71391 0.60248 24948 ft 449 kts 45°
2026-04-18 08:25 51.73505 0.63976 25397 ft 452 kts 45°
2026-04-18 08:25 51.75633 0.67744 25841 ft 456 kts 45°
2026-04-18 08:25 51.77771 0.71541 26275 ft 459 kts 45°
2026-04-18 08:26 51.79923 0.75375 26709 ft 462 kts 45°
2026-04-18 08:26 51.82079 0.79239 27158 ft 466 kts 47°
2026-04-18 08:26 51.83889 0.83611 27563 ft 471 kts 64°
2026-04-18 08:26 51.85038 0.88580 27976 ft 473 kts 76°
2026-04-18 08:27 51.85819 0.93757 28396 ft 476 kts 77°
2026-04-18 08:27 51.86674 0.98953 28782 ft 479 kts 75°
2026-04-18 08:27 51.87609 1.04138 29197 ft 482 kts 74°
2026-04-18 08:27 51.88595 1.09342 29594 ft 485 kts 73°
2026-04-18 08:28 51.89595 1.14572 29982 ft 488 kts 74°
2026-04-18 08:28 51.90589 1.19849 30347 ft 491 kts 74°
2026-04-18 08:28 51.91565 1.25166 30664 ft 494 kts 75°
2026-04-18 08:28 51.92525 1.30518 30988 ft 496 kts 75°
2026-04-18 08:29 51.93475 1.35896 31310 ft 498 kts 75°
2026-04-18 08:29 51.94424 1.41297 31627 ft 500 kts 75°
2026-04-18 08:29 51.95378 1.46721 31958 ft 500 kts 75°
2026-04-18 08:29 51.96331 1.52137 32386 ft 499 kts 76°
2026-04-18 08:30 51.97283 1.57549 32827 ft 498 kts 76°
2026-04-18 08:30 51.98231 1.62947 33253 ft 497 kts 76°
2026-04-18 08:30 51.99176 1.68338 33683 ft 496 kts 76°
2026-04-18 08:30 52.00085 1.73729 34124 ft 495 kts 77°
2026-04-18 08:31 52.00942 1.79128 34504 ft 494 kts 78°
2026-04-18 08:31 52.01764 1.84534 34851 ft 493 kts 78°
2026-04-18 08:31 52.02569 1.89933 35181 ft 492 kts 78°
2026-04-18 08:31 52.03371 1.95324 35526 ft 491 kts 78°
2026-04-18 08:32 52.04178 2.00704 35823 ft 490 kts 78°
2026-04-18 08:32 52.04991 2.06076 36125 ft 489 kts 78°
2026-04-18 08:32 52.05811 2.11439 36421 ft 489 kts 78°
2026-04-18 08:32 52.06633 2.16795 36704 ft 488 kts 78°
2026-04-18 08:33 52.07452 2.22152 36986 ft 488 kts 78°
2026-04-18 08:33 52.08265 2.27500 37183 ft 488 kts 78°
2026-04-18 08:33 52.09074 2.32839 37228 ft 485 kts 78°
2026-04-18 08:34 52.10668 2.43462 37226 ft 483 kts 78°
2026-04-18 08:34 52.12326 2.54047 37228 ft 483 kts 76°
2026-04-18 08:35 52.14321 2.64495 37223 ft 484 kts 73°
2026-04-18 08:35 52.16422 2.74899 37220 ft 484 kts 74°
2026-04-18 08:36 52.18445 2.85349 37223 ft 483 kts 75°
2026-04-18 08:36 52.20391 2.95830 37192 ft 483 kts 75°
2026-04-18 08:37 52.22313 3.06253 37197 ft 483 kts 75°
2026-04-18 08:37 52.24257 3.16763 37220 ft 484 kts 75°
2026-04-18 08:38 52.25848 3.27376 37212 ft 480 kts 86°
2026-04-18 08:38 52.26596 3.38193 37210 ft 479 kts 86°
2026-04-18 08:39 52.27345 3.49009 37182 ft 480 kts 86°
2026-04-18 08:39 52.28086 3.59840 37193 ft 480 kts 87°
2026-04-18 08:40 52.28812 3.70679 37197 ft 480 kts 87°
2026-04-18 08:40 52.29530 3.81522 37203 ft 480 kts 87°
2026-04-18 08:41 52.30240 3.92377 37206 ft 481 kts 87°
2026-04-18 08:41 52.30830 4.01476 37190 ft 481 kts 87°
2026-04-18 08:42 52.31513 4.12276 37198 ft 480 kts 87°
2026-04-18 08:42 52.32193 4.23198 37198 ft 480 kts 87°
2026-04-18 08:43 52.32854 4.34008 37206 ft 480 kts 88°
2026-04-18 08:43 52.33513 4.44872 37201 ft 480 kts 87°
2026-04-18 08:44 52.34168 4.55741 37203 ft 480 kts 88°
2026-04-18 08:44 52.34802 4.66531 37198 ft 480 kts 88°
2026-04-18 08:45 52.35430 4.77398 37192 ft 480 kts 88°
2026-04-18 08:45 52.36048 4.88276 37194 ft 480 kts 88°
2026-04-18 08:46 52.36655 4.99150 37172 ft 480 kts 88°
2026-04-18 08:46 52.37278 5.10020 37187 ft 480 kts 87°
2026-04-18 08:47 52.37984 5.20879 37201 ft 480 kts 87°
2026-04-18 08:47 52.38694 5.31736 37190 ft 480 kts 87°
2026-04-18 08:48 52.39368 5.42594 37200 ft 480 kts 87°
2026-04-18 08:48 52.40023 5.53450 37189 ft 479 kts 87°
2026-04-18 08:49 52.40674 5.64296 37202 ft 478 kts 87°
2026-04-18 08:49 52.41310 5.75132 37202 ft 478 kts 88°
2026-04-18 08:50 52.41935 5.85957 37197 ft 477 kts 88°
2026-04-18 08:50 52.42552 5.96781 37195 ft 477 kts 88°
2026-04-18 08:51 52.43163 6.07590 37175 ft 476 kts 88°
2026-04-18 08:51 52.43761 6.18386 37186 ft 475 kts 88°
2026-04-18 08:52 52.44345 6.29175 37187 ft 475 kts 88°
2026-04-18 08:52 52.44915 6.39952 37194 ft 474 kts 88°
2026-04-18 08:53 52.45477 6.50727 37175 ft 474 kts 88°
2026-04-18 08:53 52.46039 6.61490 37185 ft 474 kts 88°
2026-04-18 08:54 52.46585 6.72254 37187 ft 474 kts 88°
2026-04-18 08:54 52.47116 6.83026 37192 ft 474 kts 89°
2026-04-18 08:55 52.47647 6.93783 37190 ft 473 kts 89°
2026-04-18 08:55 52.48165 7.04552 37175 ft 473 kts 88°
2026-04-18 08:56 52.48668 7.15315 37176 ft 473 kts 89°
2026-04-18 08:56 52.49163 7.26087 37183 ft 473 kts 89°
2026-04-18 08:57 52.49883 7.42171 37190 ft 473 kts 89°
2026-04-18 08:57 52.50354 7.52946 37160 ft 473 kts 88°
2026-04-18 08:58 52.50815 7.63712 37184 ft 472 kts 88°
2026-04-18 08:58 52.51260 7.74454 37209 ft 471 kts 89°
2026-04-18 08:59 52.51694 7.85183 37185 ft 471 kts 89°
2026-04-18 08:59 52.52128 7.95925 37183 ft 471 kts 89°
2026-04-18 09:00 52.52551 8.06646 37182 ft 470 kts 89°
2026-04-18 09:00 52.52964 8.17338 37179 ft 469 kts 89°
2026-04-18 09:01 52.53360 8.28028 37182 ft 469 kts 89°
2026-04-18 09:01 52.53743 8.38710 37181 ft 469 kts 89°
2026-04-18 09:02 52.54121 8.49395 37179 ft 468 kts 89°
2026-04-18 09:02 52.54495 8.60067 37169 ft 467 kts 89°
2026-04-18 09:03 52.54856 8.70727 37180 ft 467 kts 89°
2026-04-18 09:03 52.55203 8.81373 37181 ft 466 kts 89°
2026-04-18 09:04 52.55541 8.92003 37177 ft 466 kts 89°
2026-04-18 09:04 52.55875 9.02565 37156 ft 466 kts 89°
2026-04-18 09:05 52.56197 9.13179 37167 ft 465 kts 89°
2026-04-18 09:05 52.56505 9.23794 37166 ft 464 kts 89°
2026-04-18 09:06 52.56797 9.34388 37163 ft 464 kts 89°
2026-04-18 09:06 52.57085 9.44985 37168 ft 464 kts 89°
2026-04-18 09:07 52.57368 9.55572 37189 ft 464 kts 89°
2026-04-18 09:07 52.57643 9.66159 37190 ft 463 kts 89°
2026-04-18 09:08 52.57903 9.76753 37190 ft 463 kts 89°
2026-04-18 09:08 52.58148 9.87334 37190 ft 463 kts 89°
2026-04-18 09:09 52.58392 9.97916 37190 ft 463 kts 89°
2026-04-18 09:09 52.58635 10.08506 37190 ft 463 kts 89°
2026-04-18 09:10 52.58863 10.19096 37185 ft 464 kts 89°
2026-04-18 09:10 52.58968 10.24329 37032 ft 466 kts 89°
2026-04-18 09:10 52.59073 10.29728 36516 ft 466 kts 89°
2026-04-18 09:11 52.59175 10.35045 35990 ft 465 kts 89°
2026-04-18 09:11 52.59273 10.40348 35486 ft 463 kts 90°
2026-04-18 09:11 52.59369 10.45625 34992 ft 460 kts 90°
2026-04-18 09:11 52.59464 10.50797 34512 ft 457 kts 90°
2026-04-18 09:12 52.59561 10.56000 34003 ft 454 kts 89°
2026-04-18 09:12 52.59656 10.61172 33455 ft 451 kts 89°
2026-04-18 09:12 52.59745 10.66314 32915 ft 448 kts 89°
2026-04-18 09:12 52.59828 10.71422 32389 ft 445 kts 89°
2026-04-18 09:13 52.59907 10.76500 31869 ft 443 kts 89°
2026-04-18 09:13 52.59982 10.81542 31360 ft 440 kts 89°
2026-04-18 09:13 52.60055 10.86551 30864 ft 437 kts 90°
2026-04-18 09:13 52.59764 10.91480 30357 ft 431 kts 104°
2026-04-18 09:14 52.59115 10.96273 29825 ft 428 kts 104°
2026-04-18 09:14 52.58461 11.01025 29250 ft 425 kts 104°
2026-04-18 09:14 52.57808 11.05750 28697 ft 422 kts 104°
2026-04-18 09:14 52.57155 11.10443 28155 ft 420 kts 104°
2026-04-18 09:15 52.56500 11.15106 27621 ft 418 kts 104°
2026-04-18 09:15 52.56067 11.18180 27275 ft 416 kts 104°
2026-04-18 09:15 52.55198 11.24356 26588 ft 414 kts 104°
2026-04-18 09:15 52.54554 11.28950 26091 ft 412 kts 104°
2026-04-18 09:16 52.53908 11.33524 25596 ft 410 kts 104°
2026-04-18 09:16 52.53264 11.38071 25110 ft 408 kts 104°
2026-04-18 09:16 52.52621 11.42611 24631 ft 407 kts 104°
2026-04-18 09:16 52.51980 11.47128 24171 ft 406 kts 104°
2026-04-18 09:17 52.51338 11.51623 23701 ft 404 kts 104°
2026-04-18 09:17 52.50696 11.56107 23144 ft 403 kts 104°
2026-04-18 09:17 52.50054 11.60571 22602 ft 401 kts 104°
2026-04-18 09:17 52.49412 11.65020 22071 ft 400 kts 104°
2026-04-18 09:18 52.48773 11.69451 21554 ft 398 kts 104°
2026-04-18 09:18 52.48136 11.73864 21041 ft 396 kts 104°
2026-04-18 09:18 52.47498 11.78255 20538 ft 395 kts 104°
2026-04-18 09:18 52.46859 11.82621 20047 ft 393 kts 104°
2026-04-18 09:19 52.46222 11.86968 19557 ft 391 kts 104°
2026-04-18 09:19 52.45591 11.91286 19078 ft 389 kts 104°
2026-04-18 09:19 52.44961 11.95588 18603 ft 387 kts 104°
2026-04-18 09:19 52.44342 11.99813 18090 ft 385 kts 104°
2026-04-18 09:20 52.43714 12.04065 17558 ft 383 kts 104°
2026-04-18 09:20 52.43088 12.08286 17032 ft 381 kts 104°
2026-04-18 09:20 52.42465 12.12488 16515 ft 378 kts 104°
2026-04-18 09:20 52.41842 12.16669 16000 ft 377 kts 104°
2026-04-18 09:21 52.41222 12.20823 15514 ft 375 kts 104°
2026-04-18 09:21 52.40604 12.24953 15018 ft 373 kts 104°
2026-04-18 09:21 52.39986 12.29067 14533 ft 371 kts 104°
2026-04-18 09:21 52.39370 12.33148 14057 ft 368 kts 104°
2026-04-18 09:22 52.38755 12.37202 13528 ft 366 kts 104°
2026-04-18 09:22 52.38144 12.41233 12997 ft 363 kts 104°
2026-04-18 09:22 52.37539 12.45225 12475 ft 360 kts 104°
2026-04-18 09:22 52.36937 12.49174 11962 ft 357 kts 104°
2026-04-18 09:23 52.36339 12.53087 11456 ft 352 kts 104°
2026-04-18 09:23 52.35750 12.56937 10954 ft 344 kts 104°
2026-04-18 09:23 52.35176 12.60690 10461 ft 337 kts 104°
2026-04-18 09:23 52.34618 12.64340 10221 ft 323 kts 104°
2026-04-18 09:24 52.34088 12.67809 10192 ft 306 kts 104°
2026-04-18 09:24 52.33574 12.71155 10201 ft 302 kts 104°
2026-04-18 09:24 52.33065 12.74461 9896 ft 299 kts 104°
2026-04-18 09:24 52.32557 12.77750 9525 ft 297 kts 104°
2026-04-18 09:25 52.32052 12.81007 9144 ft 294 kts 104°
2026-04-18 09:25 52.31550 12.84238 8766 ft 292 kts 104°
2026-04-18 09:25 52.31052 12.87442 8394 ft 290 kts 104°
2026-04-18 09:25 52.30555 12.90622 8029 ft 287 kts 104°
2026-04-18 09:26 52.30063 12.93778 7640 ft 286 kts 104°
2026-04-18 09:26 52.29574 12.96909 7240 ft 284 kts 104°
2026-04-18 09:26 52.29084 13.00019 6870 ft 282 kts 104°
2026-04-18 09:26 52.28599 13.03089 6347 ft 278 kts 104°
2026-04-18 09:27 52.28222 13.06152 5908 ft 269 kts 96°
2026-04-18 09:27 52.28022 13.09090 5639 ft 254 kts 95°
2026-04-18 09:27 52.27847 13.11870 5294 ft 245 kts 95°
2026-04-18 09:27 52.27673 13.14595 4942 ft 239 kts 95°
2026-04-18 09:28 52.27568 13.17279 4543 ft 234 kts 82°
2026-04-18 09:28 52.28035 13.19767 4167 ft 227 kts 68°
2026-04-18 09:28 52.28621 13.22151 3725 ft 226 kts 68°
2026-04-18 09:28 52.29209 13.24566 3145 ft 231 kts 69°
2026-04-18 09:29 52.29785 13.26959 2775 ft 220 kts 70°
2026-04-18 09:29 52.30328 13.29215 2459 ft 207 kts 71°
2026-04-18 09:29 52.30833 13.31321 2231 ft 192 kts 70°
2026-04-18 09:29 52.31310 13.33311 1931 ft 183 kts 71°
2026-04-18 09:30 52.31756 13.35170 1707 ft 165 kts 71°
2026-04-18 09:30 52.32149 13.36815 1486 ft 147 kts 71°
2026-04-18 09:30 52.32393 13.37844 1355 ft 140 kts 72°
2026-04-18 09:30 52.32740 13.39280 1139 ft 133 kts 71°
2026-04-18 09:31 52.33068 13.40678 998 ft 130 kts 70°
2026-04-18 09:31 52.33400 13.42058 782 ft 129 kts 70°
2026-04-18 09:31 52.33719 13.43391 643 ft 128 kts 70°
2026-04-18 09:31 52.34048 13.44772 476 ft 128 kts 70°
2026-04-18 09:32 52.34374 13.46135 303 ft 129 kts 70°
2026-04-18 09:32 52.34690 13.47472 163 ft 120 kts 73°
2026-04-18 09:32 52.34948 13.48553 154 ft 79 kts 68°
2026-04-18 09:32 52.35097 13.49136 154 ft 36 kts 57°
2026-04-18 09:33 52.35250 13.49386 154 ft 22 kts 37°
2026-04-18 09:33 52.35319 13.49476 154 ft 0 kts 41°
2026-04-18 09:33 52.35321 13.49480 154 ft 1 kts 41°
2026-04-18 09:33 52.35333 13.49489 154 ft 4 kts 19°
2026-04-18 09:34 52.35390 13.49477 154 ft 7 kts 341°
2026-04-18 09:34 52.35413 13.49478 154 ft 3 kts 13°
2026-04-18 09:34 52.35418 13.49511 154 ft 5 kts 83°
2026-04-18 09:34 52.35432 13.49592 154 ft 10 kts 71°
2026-04-18 09:35 52.35462 13.49719 154 ft 14 kts 69°
2026-04-18 09:35 52.35500 13.49880 154 ft 16 kts 69°
2026-04-18 09:35 52.35541 13.50054 154 ft 17 kts 69°
2026-04-18 09:35 52.35585 13.50237 154 ft 18 kts 69°
2026-04-18 09:36 52.35630 13.50428 154 ft 19 kts 69°
2026-04-18 09:36 52.35676 13.50624 155 ft 18 kts 69°
2026-04-18 09:36 52.35712 13.50772 155 ft 10 kts 69°
2026-04-18 09:36 52.35751 13.50828 155 ft 6 kts 11°
2026-04-18 09:37 52.35789 13.50815 155 ft 5 kts 339°
2026-04-18 09:37 52.35819 13.50795 155 ft 4 kts 339°
2026-04-18 09:37 52.35850 13.50776 155 ft 5 kts 339°
2026-04-18 09:37 52.35893 13.50749 155 ft 8 kts 339°
2026-04-18 09:38 52.35958 13.50708 155 ft 12 kts 339°
2026-04-18 09:38 52.36030 13.50680 155 ft 8 kts 32°
2026-04-18 09:38 52.36048 13.50755 155 ft 6 kts 69°
2026-04-18 09:38 52.36056 13.50791 155 ft 1 kts 69°
2026-04-18 09:39 52.36058 13.50800 155 ft 0 kts 69°
2026-04-18 09:39 52.36059 13.50801 155 ft 0 kts 69°